Location: Alma
(38.7220°N, 88.9090°W)
Time: 02:11:27
(UTC-06:00)

Vanguard 2 Rocket - Pass Details

Date: 15 November 2019
Orbit: 554 x 3326 km, 32.9° (Epoch: 13 December)

Event Time Altitude Azimuth Distance (km) Brightness Sun altitude
Rises 04:39:30 0° 265° (W) 3,447 - -23.1°
Reaches altitude 10° 04:41:35 10° 261° (W) 2,729 - -22.7°
Exits shadow 04:44:40 33° 246° (WSW) 1,867 8.0 -22.1°
Maximum altitude 04:48:06 57° 183° (S) 1,604 8.0 -21.4°
Drops below altitude 10° 04:59:43 10° 110° (ESE) 4,725 11.7 -19.2°
Sets 05:04:31 0° 107° (ESE) 6,174 12.8 -18.2°
